Location: Bow
(51.5261°N, 0.0167°W)
Time: 20:10:04
(UTC+00:00)

Daily predictions for brighter satellites

Satellite Brightness Start Highest point End
(mag) Time Altitude Azimuth Time Altitude Azimuth Time Altitude Azimuth
Cosmos 2219 Rocket 2.6 20:59:20 10° NW 21:04:57 65° WSW 21:10:34 10° SSE
MOS 1 Rocket 3.6 21:00:03 10° SSE 21:05:22 77° ENE 21:10:29 10° N
Cosmos 2315 Rocket 4.5 21:00:42 10° NNW 21:07:02 66° W 21:13:20 10° S
ATLAS CENTAUR R/B 2.9 21:05:20 10° WSW 21:08:40 37° NW 21:12:07 10° NNE
ERS-1 Rocket 3.2 21:05:14 10° S 21:10:15 74° WSW 21:15:17 10° NNW
Cosmos 1570 Rocket 4.1 21:05:50 10° NNW 21:11:14 77° ENE 21:16:35 10° SSE
USA 281 4.5 21:06:09 10° ESE 21:11:50 32° NE 21:17:33 10° NNW
Terra 1.9 21:08:50 10° S 21:13:33 79° WSW 21:18:18 10° NNW
SPOT 5 3.9 21:12:28 10° SSW 21:16:35 40° W 21:20:53 10° NNW
Iridium 51 4.5 21:16:54 10° S 21:21:06 65° E 21:25:05 10° N
Meteor 1-4 Rocket 2.2 21:18:17 10° SSW 21:21:15 79° WNW 21:24:18 10° N
GP-B 4.2 21:19:37 10° NNE 21:23:30 29° E 21:27:21 10° SE
ARIANE 5 R/B 4.3 21:20:46 10° ESE 21:24:10 23° ENE 21:27:35 10° N
Aureole 3 4.1 21:20:48 10° SSW 21:25:26 82° W 21:31:17 10° N
Landsat 4 3.6 21:24:48 10° S 21:28:13 74° WSW 21:31:40 10° NNW
NOSS 0 Rocket 4.1 21:22:54 10° NNW 21:29:11 77° ENE 21:35:24 10° SE
COSMOS 2428 2.8 21:25:47 10° NNW 21:31:30 80° WSW 21:37:11 10° SSE
Cosmos 1953 2.3 21:28:05 10° NNW 21:31:56 81° W 21:35:43 10° S
Cosmos 1455 2.0 21:30:04 10° NNW 21:33:35 82° W 21:37:06 10° S
Cosmos 2360 Rocket 4.1 21:29:15 10° NW 21:33:37 23° WSW 21:37:57 10° SSW
CZ-4C R/B 2.6 21:30:36 10° S 21:34:39 34° ESE 21:39:37 10° NE
BREEZE-M DEB (TANK) 4.4 21:12:57 10° WSW 21:34:49 78° S 21:39:44 10° E
SJ 16-02 2.2 21:30:46 10° SW 21:34:59 53° WNW 21:39:16 10° NNE
SPOT 3 Rocket 3.8 21:31:06 10° S 21:36:14 69° WSW 21:41:26 10° NNW
ATLAS 2AS CENTAUR R/B 4.2 21:32:44 10° WNW 21:38:03 25° WSW 21:43:15 10° SSW
Cosmos 1745 Rocket 4.5 21:34:25 10° SSE 21:40:27 48° E 21:46:31 10° NNE
Spot 2 Rocket 4.1 21:35:56 10° S 21:40:54 54° W 21:45:56 10° NNW
Nadezhda 1 Rocket 4.1 21:36:20 10° N 21:42:36 67° ENE 21:48:28 11° SSE
Cosmos 1703 Rocket 3.6 21:42:19 10° S 21:46:46 75° E 21:51:12 10° NNE
Cosmos 1242 Rocket 1.7 21:45:01 10° S 21:47:43 88° ESE 21:50:27 10° NNE
Okean 1-7 3.3 21:44:38 10° SSW 21:48:56 71° WNW 21:53:15 10° N
Cosmos 1315 Rocket 3.3 21:46:31 10° SSW 21:50:28 61° WNW 21:54:27 10° N
Cosmos 2208 Rocket 4.2 21:48:37 10° NNW 21:53:47 67° WSW 21:58:30 12° S
SeaSat 1 3.2 21:52:49 10° S 21:57:26 45° WSW 22:02:10 10° NW
Landsat 5 3.4 21:53:30 10° NNE 21:57:37 75° ESE 22:01:51 10° S
H-2A R/B 4.0 21:56:50 10° ESE 22:00:22 26° ENE 22:03:52 10° N
COSMOS 2455 2.9 21:54:33 10° SSW 22:00:28 61° ESE 22:06:25 10° NE
Cosmos 158 Rocket 4.3 21:57:21 10° NNW 22:02:33 60° WSW 22:07:05 13° S
NOSS 8 (E) 4.3 21:59:53 10° SW 22:03:42 82° SE 22:06:46 10° NE
Cosmos 1408 2.4 22:02:05 17° SSE 22:04:07 46° E 22:07:01 10° NNE
Cosmos 1174 4.1 22:00:18 10° NW 22:05:24 84° NE 22:08:42 15° SE
Ariane Rocket 4.2 22:01:40 10° SSW 22:06:21 36° W 22:11:03 10° NNW
Cosmos 405 Rocket 3.8 22:03:45 10° N 22:07:13 33° ENE 22:09:55 15° SE
SL-4 R/B 3.3 22:05:07 10° W 22:08:19 24° SW 22:10:36 15° S
ALOS 2 4.4 22:05:13 10° ESE 22:08:38 23° ENE 22:12:03 10° N
SL-16 R/B 3.3 22:07:18 10° NNW 22:12:37 38° NE 22:17:54 10° ESE
BlueWalker 3 1.9 22:09:30 10° WSW 22:13:16 83° NNW 22:17:01 10° ENE
Cosmos 1486 Rocket 4.0 22:09:34 10° SSW 22:14:44 71° ESE 22:19:57 10° NNE
Cosmos 2237 Rocket 2.2 22:09:25 10° NNW 22:15:08 87° WSW 22:19:45 16° SSE
CENTAUR R/B 3.5 22:11:56 15° SSE 22:15:34 27° ESE 22:21:03 10° ENE
Meteor 2-5 Rocket 4.3 22:11:13 15° SSE 22:15:48 44° E 22:21:14 10° NNE
Cosmos 2227 Rocket 3.1 22:18:49 16° SSE 22:22:33 32° ESE 22:27:31 10° NE
Cosmos 1980 3.9 22:23:48 10° NW 22:29:27 68° WSW 22:33:48 17° SSE
Sich 1 Rocket 4.4 22:27:47 10° N 22:31:57 40° ENE 22:34:57 17° SE
USA 234 3.2 22:26:52 10° ENE 22:33:24 66° SE 22:39:53 10° SW
Cosmos 2242 Rocket 3.6 22:31:20 15° S 22:35:09 87° E 22:39:46 10° N
Cosmos 1354 Rocket 4.3 22:31:07 15° S 22:35:19 53° ESE 22:40:28 10° NNE
Okean 1 Rocket 4.3 22:33:58 10° N 22:37:54 31° ENE 22:40:58 15° SE
Cosmos 1709 Rocket 4.0 22:33:28 13° S 22:39:11 83° E 22:45:32 10° N
Cosmos 2297 Rocket 2.2 22:35:50 10° SSW 22:41:27 75° ESE 22:47:08 10° NNE
NOSS 3 (A) 3.6 22:46:57 49° NNE 22:46:57 49° NNE 22:48:15 10° NE
Cosmos 371 Rocket 3.6 22:45:48 10° SSW 22:50:35 68° WNW 22:55:26 10° NNE
Terra 4.4 22:50:17 10° WSW 22:51:57 12° W 22:53:37 10° WNW
Cosmos 2219 4.1 22:51:46 19° SSE 22:54:51 31° ESE 22:59:44 10° NE
USA 281 3.3 22:50:46 18° SSE 22:55:52 77° WSW 23:02:31 10° NNW
PSLV R/B 3.8 22:52:35 10° NNE 22:56:36 79° ESE 22:59:12 21° S
Meteor 1-24 Rocket 3.7 22:52:47 16° S 22:57:24 85° E 23:02:55 10° NNE
Cosmos 1703 3.3 22:55:32 18° SSW 22:58:08 67° WNW 23:01:49 10° N
ARIANE 5 R/B 3.1 22:57:21 19° S 23:00:15 52° W 23:04:33 10° NNW
GP-B 4.4 22:56:42 10° NNW 23:00:44 35° W 23:04:43 10° SW
Orbus 7S? 4.0 22:59:27 10° WNW 23:02:13 38° NNE 23:04:50 10° E
Cosmos 1025 Rocket 4.5 23:00:15 16° SE 23:02:27 24° E 23:05:56 10° NE
EXPRESS MD2 4.2 23:02:11 10° WSW 23:02:53 15° WSW 23:02:53 15° WSW
Cosmos 2263 Rocket 3.3 23:01:07 18° SE 23:03:53 27° ESE 23:08:27 10° NE
Cosmos 2084 Rocket 3.6 23:04:28 10° SW 23:08:43 73° NW 23:12:51 10° NE
Cosmos 1378 Rocket 3.5 23:10:39 23° S 23:13:24 80° E 23:17:50 10° NNE
Cosmos 1674 Rocket 3.5 23:14:09 24° S 23:16:44 73° E 23:21:03 10° NNE
Cosmos 1263 4.1 23:13:31 10° N 23:16:47 79° E 23:17:58 33° SSE
Spot 2 4.4 23:15:35 22° SSE 23:18:56 87° ENE 23:23:54 10° NNW
NOSS 3-2 (A) 3.7 23:18:38 21° S 23:21:45 43° ESE 23:27:32 10° NE
Cosmos 1777 Rocket 4.4 23:17:07 10° SW 23:22:22 65° WNW 23:27:38 10° NNE
CZ-4C R/B 2.8 23:17:59 10° WSW 23:22:42 55° NW 23:28:46 10° NE
Cosmos 2154 Rocket 4.4 23:18:32 20° SSE 23:22:46 53° E 23:28:53 10° NNE
Cosmos 1825 1.8 23:23:13 30° S 23:24:47 77° E 23:28:13 10° NNE
PSLV R/B 4.1 23:24:47 10° NNE 23:28:47 41° E 23:30:49 24° SSE
Cosmos 2151 Rocket 4.0 23:24:57 10° NNW 23:29:15 54° W 23:31:48 23° SSW
Cosmos 1538 Rocket 4.0 23:26:19 10° NNW 23:31:32 73° WSW 23:34:51 23° SSE
Cosmos 1818 3.6 23:26:38 10° NW 23:32:10 89° SW 23:36:27 17° SE
NOSS 3-2 (C) 4.4 23:30:22 19° SSE 23:32:37 25° ESE 23:37:27 10° ENE
Okean 2 Rocket 3.5 23:29:49 10° NNW 23:34:12 54° W 23:36:50 23° SSW
H-2A R/B 3.3 23:32:47 21° SSW 23:35:09 41° W 23:39:08 10° NNW
Cosmos 1892 2.6 23:34:58 26° SSW 23:36:47 68° WNW 23:40:19 10° N
Cosmos 405 Rocket 4.4 23:39:08 10° NW 23:42:11 23° W 23:44:11 15° SW
Cosmos 1328 3.7 23:41:31 28° S 23:43:27 77° E 23:47:21 10° NNE
ALOS 2 3.0 23:42:15 24° SSW 23:44:40 53° W 23:48:59 10° NNW
Cosmos 332 Rocket 4.3 23:42:23 13° SW 23:46:39 58° WNW 23:51:29 10° NNE
COSMOS 2455 4.2 23:41:07 10° WSW 23:46:44 39° NW 23:52:24 10° NNE
Aureole 1 Rocket 3.2 23:48:39 27° S 23:50:44 60° ESE 23:55:47 10° NNE
Cosmos 1937 Rocket 4.3 23:48:31 22° SSE 23:51:19 38° ESE 23:56:08 10° NE
BlueWalker 3 2.2 23:47:51 10° WNW 23:51:36 68° N 23:55:20 10° E
